GW4215 Weather Reports


time (UTC)temp
C
wind
direction
speed
KPH
gust
KPH
rain 1hr
cm
rain 24hr
cm
rain mn
cm
humidity
%
barometer
mb
20260507015505 12 248 0.0 0.0 0.00 0.28 0.28 94 1008.3
20260507015005 12 248 0.0 0.0 0.00 0.28 0.28 94 1008.3
20260507014505 12 248 0.0 1.6 0.00 0.28 0.28 94 1008.2
20260507014005 12 248 0.0 3.2 0.00 0.28 0.28 94 1008.2
20260507013505 12 248 0.0 0.0 0.00 0.28 0.28 94 1008.3
20260507013005 12 248 1.6 1.6 0.00 0.28 0.28 94 1008.4
20260507012505 12 248 0.0 1.6 0.00 0.28 0.28 94 1008.3
20260507012005 12 248 0.0 1.6 0.00 0.28 0.28 94 1008.4
20260507010505 12 352 0.0 1.6 0.00 0.28 0.28 94 1008.2
20260507010005 12 352 1.6 4.8 0.00 0.28 0.28 94 1008.3
20260507005504 12 85 1.6 3.2 0.00 0.28 0.28 93 1008.2
20260507005005 12 142 0.0 0.0 0.00 0.28 0.28 93 1008.0
20260507004504 12 142 0.0 1.6 0.00 0.28 0.28 93 1007.9
20260507003505 13 142 0.0 1.6 0.00 0.28 0.28 93 1008.1
20260507003005 13 142 0.0 3.2 0.00 0.28 0.28 93 1008.0
20260507002505 13 227 0.0 1.6 0.00 0.28 0.28 93 1008.1
20260507002004 13 227 0.0 1.6 0.00 0.28 0.28 93 1008.2
20260507001505 13 227 0.0 1.6 0.00 0.28 0.28 93 1008.1
20260507001005 13 227 0.0 1.6 0.00 0.28 0.28 93 1008.2
20260507000505 13 227 0.0 1.6 0.00 0.28 0.28 93 1008.3
20260507000005 13 227 0.0 1.6 0.00 0.28 0.28 93 1008.3
20260506235504 13 227 0.0 1.6 0.00 0.28 0.28 93 1008.2
20260506235005 13 227 0.0 3.2 0.00 0.28 0.28 93 1008.2
20260506234505 13 221 0.0 1.6 0.00 0.28 0.28 93 1008.1
20260506234005 13 221 0.0 3.2 0.00 0.28 0.28 93 1008.1
20260506233005 13 194 0.0 1.6 0.00 0.28 0.28 93 1008.1
20260506232504 13 194 0.0 1.6 0.00 0.28 0.28 93 1008.1
20260506232005 13 194 0.0 1.6 0.00 0.28 0.28 93 1008.1
20260506231505 13 194 0.0 1.6 0.00 0.28 0.28 93 1008.0
20260506231005 13 194 0.0 3.2 0.00 0.28 0.28 93 1008.0
20260506230505 13 246 0.0 1.6 0.03 0.28 0.28 93 1008.0
20260506230004 13 246 0.0 1.6 0.03 0.28 0.28 93 1007.9
20260506225505 13 246 0.0 1.6 0.03 0.28 0.28 93 1008.0
20260506225005 13 246 0.0 1.6 0.03 0.28 0.28 93 1007.9
20260506224505 13 246 0.0 1.6 0.03 0.28 0.28 93 1007.9
20260506224005 13 246 0.0 1.6 0.03 0.28 0.28 93 1007.8
20260506223506 13 246 0.0 4.8 0.03 0.28 0.28 93 1007.8
20260506223005 13 263 1.6 3.2 0.03 0.28 0.28 93 1007.8
20260506222505 13 224 0.0 1.6 0.03 0.28 0.28 93 1007.7
20260506222005 13 224 1.6 8.0 0.03 0.28 0.28 93 1007.7
20260506221505 13 242 1.6 9.7 0.03 0.28 0.28 93 1007.7
20260506221005 12 216 1.6 4.8 0.03 0.28 0.28 93 1007.7
20260506220505 13 215 1.6 4.8 0.00 0.25 0.25 93 1007.7
20260506220005 13 222 1.6 4.8 0.00 0.25 0.25 93 1007.7
20260506215505 13 213 3.2 11.3 0.00 0.25 0.25 93 1007.7
20260506215006 13 215 1.6 4.8 0.00 0.25 0.25 93 1007.6
20260506214505 13 224 1.6 3.2 0.00 0.25 0.25 93 1007.6
20260506213504 13 230 3.2 11.3 0.03 0.25 0.25 93 1007.7
20260506213005 13 197 1.6 9.7 0.03 0.25 0.25 93 1007.5
20260506212505 13 239 1.6 4.8 0.05 0.25 0.25 93 1007.5
20260506212004 13 250 1.6 4.8 0.05 0.25 0.25 92 1007.6
20260506211004 13 199 1.6 4.8 0.05 0.25 0.25 92 1007.6
20260506210505 13 200 1.6 9.7 0.08 0.25 0.25 92 1007.6
20260506210005 13 230 1.6 4.8 0.08 0.25 0.25 92 1007.7
20260506205505 13 202 1.6 4.8 0.08 0.25 0.25 92 1007.8
20260506205005 13 206 1.6 8.0 0.08 0.25 0.25 92 1007.8
20260506204504 13 218 1.6 9.7 0.08 0.25 0.25 92 1008.0
20260506204004 13 235 1.6 4.8 0.08 0.25 0.25 92 1008.1
20260506203004 13 219 1.6 4.8 0.05 0.23 0.23 92 1008.2
20260506202504 13 242 3.2 8.0 0.03 0.20 0.20 92 1008.2
20260506201504 13 230 1.6 3.2 0.03 0.20 0.20 92 1008.0
20260506200504 13 193 1.6 8.0 0.03 0.18 0.18 92 1007.8
20260506200005 13 212 3.2 8.0 0.03 0.18 0.18 92 1008.0
20260506195505 13 217 1.6 4.8 0.03 0.18 0.18 92 1008.1
20260506195005 13 215 4.8 8.0 0.03 0.18 0.18 91 1008.3
20260506194005 13 226 3.2 16.1 0.03 0.18 0.18 91 1008.2
20260506193504 13 236 8.0 19.3 0.03 0.18 0.18 91 1008.4
20260506193004 14 199 3.2 14.5 0.03 0.18 0.18 91 1008.4
20260506192504 14 214 4.8 11.3 0.05 0.18 0.18 92 1008.4
20260506192005 13 200 3.2 12.9 0.05 0.18 0.18 92 1008.4
20260506191504 13 206 3.2 12.9 0.08 0.18 0.18 91 1008.5
20260506191004 14 201 4.8 16.1 0.05 0.15 0.15 92 1008.7
20260506190504 14 231 3.2 19.3 0.05 0.15 0.15 91 1008.8
20260506190005 14 238 3.2 16.1 0.05 0.15 0.15 92 1008.9
20260506185504 14 204 1.6 12.9 0.05 0.15 0.15 92 1008.8
20260506185005 13 227 3.2 14.5 0.08 0.15 0.15 92 1008.8
20260506184505 13 193 3.2 11.3 0.08 0.15 0.15 91 1008.8
20260506184005 13 224 3.2 9.7 0.10 0.15 0.15 91 1009.1
20260506183505 13 226 4.8 9.7 0.10 0.15 0.15 91 1008.9
20260506183006 13 231 1.6 9.7 0.13 0.15 0.15 91 1009.0
20260506182504 13 239 1.6 9.7 0.10 0.13 0.13 90 1009.1
20260506182005 13 243 3.2 12.9 0.13 0.13 0.13 90 1009.1
20260506181005 13 207 4.8 14.5 0.10 0.10 0.10 90 1009.1
20260506180505 13 178 4.8 14.5 0.10 0.10 0.10 90 1009.1
20260506180005 14 177 3.2 9.7 0.10 0.10 0.10 90 1009.1
20260506175004 13 185 3.2 8.0 0.08 0.08 0.08 90 1009.3
20260506174505 13 212 3.2 8.0 0.08 0.08 0.08 89 1009.6
20260506174005 13 202 3.2 9.7 0.05 0.05 0.05 89 1009.8
20260506173505 14 197 4.8 11.3 0.05 0.05 0.05 88 1009.8
20260506173005 14 226 1.6 4.8 0.03 0.03 0.03 88 1010.0
20260506171505 14 208 4.8 9.7 0.00 0.00 0.00 86 1010.1
20260506171005 15 219 3.2 9.7 0.00 0.00 0.00 85 1010.1
20260506170504 15 259 3.2 11.3 0.00 0.00 0.00 84 1010.3
20260506165505 15 246 4.8 11.3 0.00 0.00 0.00 83 1010.4
20260506165004 15 239 1.6 11.3 0.00 0.00 0.00 82 1010.4
20260506164504 15 232 3.2 12.9 0.00 0.00 0.00 81 1010.4
20260506164004 15 228 3.2 12.9 0.00 0.00 0.00 81 1010.5
20260506163505 15 199 3.2 11.3 0.00 0.00 0.00 82 1010.5
20260506163005 15 251 4.8 9.7 0.00 0.00 0.00 82 1010.5
20260506162505 15 231 3.2 4.8 0.00 0.00 0.00 82 1010.5
20260506162005 15 222 4.8 11.3 0.00 0.00 0.00 82 1010.5
20260506161004 15 210 4.8 12.9 0.00 0.00 0.00 82 1010.6
20260506160505 15 217 4.8 12.9 0.00 0.00 0.00 81 1010.7
20260506155504 16 230 6.4 14.5 0.00 0.00 0.00 81 1010.8
20260506155005 16 230 8.0 14.5 0.00 0.00 0.00 80 1010.9
20260506154504 16 276 4.8 16.1 0.00 0.00 0.00 81 1010.9
20260506154005 16 215 3.2 16.1 0.00 0.00 0.00 81 1011.0
20260506153005 16 228 3.2 16.1 0.00 0.00 0.00 81 1011.0
20260506152504 16 221 4.8 14.5 0.00 0.00 0.00 81 1010.8
20260506152005 16 221 3.2 19.3 0.00 0.00 0.00 82 1010.8
20260506151505 16 221 6.4 19.3 0.00 0.00 0.00 81 1010.7
20260506151005 15 209 3.2 12.9 0.00 0.00 0.00 82 1010.7
20260506150505 15 209 6.4 14.5 0.00 0.00 0.00 81 1010.8
20260506150005 16 213 8.0 19.3 0.00 0.00 0.00 80 1010.8
20260506145504 16 241 3.2 12.9 0.00 0.00 0.00 81 1010.8
20260506145004 16 193 6.4 11.3 0.00 0.00 0.00 80 1010.8
20260506144505 16 212 8.0 19.3 0.00 0.00 0.00 80 1010.9
20260506144004 16 215 8.0 14.5 0.00 0.00 0.00 79 1011.0
20260506143504 16 218 6.4 11.3 0.00 0.00 0.00 79 1011.1
20260506142505 16 227 8.0 14.5 0.00 0.00 0.00 79 1011.0
20260506142004 16 231 9.7 24.1 0.00 0.00 0.00 80 1011.0
20260506141504 16 231 6.4 20.9 0.00 0.00 0.00 79 1010.9
20260506141005 16 202 9.7 27.4 0.00 0.00 0.00 79 1011.1
20260506140505 16 214 9.7 19.3 0.00 0.00 0.00 80 1011.1
20260506140004 16 237 4.8 19.3 0.00 0.00 0.00 80 1011.2
20260506135505 16 204 4.8 20.9 0.00 0.00 0.00 80 1011.1
20260506135004 16 216 4.8 19.3 0.00 0.00 0.00 80 1011.1
20260506134504 16 227 6.4 14.5 0.00 0.00 0.00 81 1011.0
20260506134004 16 231 8.0 19.3 0.00 0.00 0.00 81 1011.0
20260506133505 16 227 8.0 19.3 0.00 0.00 0.00 81 1010.8
20260506133004 15 227 4.8 22.5 0.00 0.00 0.00 82 1010.8
20260506132005 15 220 4.8 19.3 0.00 0.00 0.00 82 1010.8
20260506131504 15 233 8.0 14.5 0.00 0.00 0.00 81 1010.7
20260506130504 16 210 3.2 4.8 0.00 0.00 0.00 82 1010.9
20260506130005 16 215 4.8 9.7 0.00 0.00 0.00 81 1010.9
20260506125004 16 269 4.8 20.9 0.00 0.00 0.00 81 1011.0
20260506124504 16 194 4.8 20.9 0.00 0.00 0.00 82 1011.1
20260506123505 16 228 6.4 19.3 0.00 0.00 0.00 82 1011.2
20260506122505 15 186 3.2 14.5 0.00 0.00 0.00 83 1011.3
20260506122004 15 248 4.8 14.5 0.00 0.00 0.00 83 1011.3
20260506121504 15 231 4.8 14.5 0.00 0.00 0.00 84 1011.3
20260506121004 15 224 3.2 11.3 0.00 0.00 0.00 85 1011.2
20260506120505 15 224 3.2 11.3 0.00 0.00 0.00 85 1011.2
20260506115505 15 247 3.2 12.9 0.00 0.00 0.00 86 1011.1
20260506114505 15 201 4.8 12.9 0.00 0.00 0.00 86 1011.0
20260506113504 14 208 3.2 14.5 0.00 0.00 0.00 88 1011.1
20260506113005 14 220 3.2 8.0 0.00 0.00 0.00 88 1011.2
20260506112505 13 206 1.6 4.8 0.00 0.00 0.00 89 1011.2
20260506112005 13 210 4.8 9.7 0.00 0.00 0.00 89 1011.2
20260506111504 13 208 1.6 4.8 0.00 0.00 0.00 90 1011.3
20260506111005 13 220 3.2 8.0 0.00 0.00 0.00 91 1011.4
20260506110504 13 179 1.6 8.0 0.00 0.00 0.00 91 1011.2
20260506110005 13 208 3.2 4.8 0.00 0.00 0.00 91 1011.3
20260506105504 12 207 1.6 4.8 0.00 0.00 0.00 91 1011.1
20260506105005 12 187 1.6 4.8 0.00 0.00 0.00 91 1011.2
20260506104005 12 200 1.6 9.7 0.00 0.00 0.00 91 1011.3
20260506102004 12 214 0.0 3.2 0.00 0.00 0.00 91 1011.2
20260506101505 12 220 0.0 1.6 0.00 0.00 0.00 91 1011.2
20260506101004 12 220 0.0 3.2 0.00 0.00 0.00 91 1011.2
20260506100504 12 217 0.0 3.2 0.00 0.00 0.00 91 1011.2
20260506100004 12 217 1.6 3.2 0.00 0.00 0.00 90 1011.1
20260506095504 12 181 0.0 1.6 0.00 0.00 0.00 90 1011.2
20260506095004 12 181 0.0 1.6 0.00 0.00 0.00 90 1011.2
20260506094504 12 175 0.0 4.8 0.00 0.00 0.00 90 1011.1
20260506094005 12 198 0.0 3.2 0.00 0.00 0.00 90 1011.1
20260506093504 12 209 0.0 3.2 0.00 0.00 0.00 90 1011.1
20260506093004 12 40 0.0 1.6 0.00 0.00 0.00 89 1011.1
20260506092505 12 40 0.0 1.6 0.00 0.00 0.00 89 1011.2
20260506092005 12 40 0.0 1.6 0.00 0.00 0.00 90 1011.2
20260506091504 12 320 0.0 3.2 0.00 0.00 0.00 89 1011.2
20260506091005 12 213 0.0 1.6 0.00 0.00 0.00 89 1011.2
20260506090504 12 213 1.6 3.2 0.00 0.00 0.00 89 1011.2
20260506090005 12 237 1.6 3.2 0.00 0.00 0.00 89 1011.3
20260506085504 12 237 1.6 3.2 0.00 0.00 0.00 89 1011.4
20260506085004 12 222 3.2 9.7 0.00 0.00 0.00 89 1011.4
20260506084505 12 218 1.6 4.8 0.00 0.00 0.00 89 1011.3
20260506083505 12 200 1.6 4.8 0.00 0.00 0.00 88 1011.5
20260506081504 12 217 1.6 4.8 0.00 0.00 0.00 88 1011.5
20260506081005 12 171 3.2 4.8 0.00 0.00 0.00 88 1011.5
20260506080504 12 229 3.2 4.8 0.00 0.00 0.00 88 1011.5
20260506073504 13 195 1.6 4.8 0.00 0.00 0.00 87 1011.6
20260506073005 13 173 1.6 4.8 0.00 0.00 0.00 87 1011.6
20260506072005 13 173 1.6 4.8 0.00 0.00 0.00 86 1011.7
20260506071004 13 233 1.6 11.3 0.00 0.00 0.00 86 1011.7
20260506070505 13 225 3.2 12.9 0.00 0.00 0.00 86 1011.7
20260506062504 13 222 1.6 4.8 0.00 0.00 0.00 85 1011.6
20260506062004 13 214 1.6 4.8 0.00 0.00 0.00 85 1011.7
20260506051005 13 283 1.6 3.2 0.00 0.00 0.00 82 1012.0
20260506050505 14 261 3.2 9.7 0.00 0.00 0.00 82 1012.1
20260506045004 14 185 1.6 4.8 0.00 0.00 0.00 81 1012.0
20260506044505 14 206 1.6 4.8 0.00 0.00 0.00 80 1012.1
20260506044005 15 252 3.2 16.1 0.00 0.00 0.00 80 1012.1
20260506043505 15 222 3.2 16.1 0.00 0.00 0.00 80 1012.2
20260506041505 15 239 4.8 11.3 0.00 0.00 0.00 80 1012.1
20260506041004 15 221 6.4 16.1 0.00 0.00 0.00 80 1012.1
20260506040505 15 206 4.8 12.9 0.00 0.00 0.00 80 1012.2
20260506035504 15 211 4.8 16.1 0.00 0.00 0.00 80 1012.2
20260506035005 15 229 4.8 19.3 0.00 0.00 0.00 80 1012.2
20260506034004 15 238 3.2 12.9 0.00 0.00 0.00 79 1012.1
20260506033504 15 226 4.8 11.3 0.00 0.00 0.00 79 1012.1
20260506032504 15 205 8.0 20.9 0.00 0.00 0.00 78 1012.0
20260506032004 15 214 4.8 25.7 0.00 0.00 0.00 78 1012.0
20260506031505 15 186 4.8 16.1 0.00 0.00 0.00 78 1012.0
20260506031004 15 246 8.0 20.9 0.00 0.00 0.00 78 1012.2
20260506030004 15 218 8.0 16.1 0.00 0.00 0.00 77 1012.1
20260506025505 15 255 4.8 19.3 0.00 0.00 0.00 76 1012.0
20260506025004 15 236 6.4 19.3 0.00 0.00 0.00 76 1012.1
20260506024504 15 222 4.8 19.3 0.00 0.00 0.00 75 1012.0
20260506024004 15 240 8.0 19.3 0.00 0.00 0.00 74 1012.2
20260506023504 15 228 8.0 22.5 0.00 0.00 0.00 74 1012.1
20260506023004 15 232 9.7 19.3 0.00 0.00 0.00 74 1012.1
20260506022504 15 231 9.7 29.0 0.00 0.00 0.00 74 1012.1
20260506021004 16 250 8.0 20.9 0.00 0.00 0.00 73 1011.9
20260506020504 16 222 6.4 24.1 0.00 0.00 0.00 73 1011.7
20260506020004 16 205 4.8 24.1 0.00 0.00 0.00 73 1011.6